Location: Althorst
(53.6379°N, 10.7715°E)
Time: 20:31:43
(UTC+00:00)

Lacrosse 4 Rocket - Pass Details

Date: 10 December 2019
Orbit: 540 x 619 km, 68.0° (Epoch: 26 January)

Event Time Altitude Azimuth Distance (km) Brightness Sun altitude
Rises 17:07:13 0° 320° (NW) 2,734 5.2 -17.9°
Reaches altitude 10° 17:10:15 10° 344° (NNW) 1,851 4.0 -18.4°
Enters shadow 17:12:01 15° 9° (N) 1,579 3.4 -18.6°
